This is the latest recevied weather packets stored in our database for station/object K4DFD-13. If no packets are shown the sender has not sent any weather packets the latest 10 day(s).
| Time | Temp. | Humidity | Pressure | Rain* | Wind** | Luminosity | Snow |
|---|---|---|---|---|---|---|---|
| 1777690379 | 11.11° C | 72% | 1014.6 hPa | 0 mm | - | - | - |
| 1777690070 | 11.11° C | 72% | 1014.6 hPa | 0 mm | - | - | - |
| 1777689770 | 11.11° C | 71% | 1014.5 hPa | 0 mm | - | - | - |
| 1777689478 | 11.11° C | 71% | 1014.5 hPa | 0 mm | - | - | - |
| 1777689169 | 11.11° C | 71% | 1014.5 hPa | 0 mm | - | - | - |
| 1777688868 | 11.11° C | 70% | 1014.5 hPa | 0 mm | - | - | - |
| 1777688578 | 11.67° C | 69% | 1014.4 hPa | 0 mm | - | - | - |
| 1777674140 | 19.44° C | 35% | 1010.5 hPa | 0 mm | - | - | - |
| 1777673840 | 19.44° C | 36% | 1010.6 hPa | 0 mm | - | - | - |
| 1777673239 | 20° C | 36% | 1010.5 hPa | 0 mm | - | - | - |
| 1777672939 | 19.44° C | 36% | 1010.5 hPa | 0 mm | - | - | - |
| 1777672639 | 18.89° C | 42% | 1010.6 hPa | 0 mm | - | - | - |
| 1777672338 | 18.33° C | 47% | 1010.7 hPa | 0 mm | - | - | - |
| 1777672038 | 18.89° C | 46% | 1010.6 hPa | 0 mm | - | - | - |
| 1777671738 | 18.33° C | 47% | 1010.3 hPa | 0 mm | - | - | - |
| 1777671437 | 17.78° C | 48% | 1010.6 hPa | 0 mm | - | - | - |
| 1777671137 | 17.78° C | 48% | 1010.8 hPa | 0 mm | - | - | - |
| 1777670537 | 18.33° C | 46% | 1010.8 hPa | 0 mm | - | - | - |
| 1777670236 | 18.33° C | 46% | 1010.6 hPa | 0 mm | - | - | - |
| 1777669936 | 18.33° C | 45% | 1011.1 hPa | 0 mm | - | - | - |
| 1777669636 | 18.33° C | 44% | 1011 hPa | 0 mm | - | - | - |
| 1777669035 | 18.33° C | 45% | 1011.2 hPa | 0 mm | - | - | - |
| 1777667834 | 18.33° C | 46% | 1011.4 hPa | 0 mm | - | - | - |
| 1777667533 | 18.89° C | 45% | 1011 hPa | 0 mm | - | - | - |
| 1777667233 | 18.89° C | 46% | 1011.1 hPa | 0 mm | - | - | - |
* Rain latest hour (hover to see other rain measurements)
** Current wind speed in m/s (hover to see current wind gust speed)